Vertical_Velocity
-0 -0 2 4 1 -1 -1 0 1 -1 -1 -2 -3 -2 -2 -2 -0 -0 -4 -3 -6 -7 -9 -10 -1 -2 -4 -4 -2 -1 0 -3 -8 13 -4 -3 1 -5 -1 -5 -0 -3 -1
-2 7 1 -1 -3 -3 1 -0 -0 -0 -1 -3 -2 1 -1 -3 -1 -0 -8 -2 -0 -10 -3 2 -4 -3 -1 -0 -2 -1 -1 -0 -9 -1 4 -0 -1 -2 -4 -3 -1 -1 -3
1 4 -0 5 1 -3 1 -2 -1 -0 -3 -1 -0 -1 -1 -5 -1 -6 -3 2 -5 -14 -10 -3 -4 -3 1 -0 -2 -0 -1 0 -1 -6 3 -5 1 -4 -2 -1 -2 -1 -1
4 -5 -3 -1 -0 -1 2 -2 -2 -2 -4 -2 -4 -4 -0 -6 5 -10 3 -10 -10 -8 -6 -2 -3 -3 -1 -0 -2 -2 -2 -1 -0 -1 -0 -4 -2 1 -3 -3 3 -6 0
-1 -2 -4 -6 1 -0 -2 -2 -3 -1 -1 4 0 -2 0 -1 9 2 -1 -5 -6 -4 -1 -1 -1 -3 3 -2 -2 -1 -4 -3 -2 -1 -1 -0 0 1 -2 1 -4 0 -1
-1 -0 -2 -2 -1 -2 0 -2 -4 -1 -2 1 2 -1 4 7 -1 -13 -8 -4 -7 -4 -2 -1 -0 -5 2 2 6 0 -1 -0 2 0 -2 -2 1 -2 -1 -1 -4 -2 8
-1 -2 -0 2 0 -3 -2 -1 1 8 3 -1 5 6 1 6 1 -5 3 -7 -3 -3 -4 -1 1 -4 3 -2 -4 -4 -2 -2 -3 -2 3 -2 -1 -2 2 3 -4 -3 -2
4 0 2 -4 1 3 3 1 2 -3 -5 2 7 2 0 -4 -4 -3 -8 -2 0 -3 -4 -2 -0 -6 4 0 -1 -1 -2 -2 -1 -2 -5 -2 -4 -3 -4 -2 -0 -0 -3
-2 -1 -4 1 0 2 -2 11 14 7 5 8 6 -4 -13 -3 -8 -6 3 -5 2 -1 -2 -2 1 -5 -0 -1 -3 1 -2 -2 -2 -2 -3 -1 0 -2 -1 0 -4 0 -1
-5 -7 2 3 2 10 15 17 11 6 5 -1 1 -9 -12 -4 3 -0 3 2 1 -3 -5 -4 4 -2 -1 -1 -0 1 -0 -1 0 -1 -3 -2 -0 -1 -3 -3 -1 -1 -1
4 2 -4 3 2 15 15 13 12 9 4 -1 4 -4 -8 -6 2 2 -0 2 1 -1 -3 -3 -3 4 1 0 -2 -0 -0 1 -2 -1 -0 2 0 -0 -1 -1 -0 -1 -3
-4 -1 1 -0 1 8 7 1 2 -0 3 -3 -7 -4 -2 -0 3 4 -1 -3 0 -1 -3 -3 -2 -3 -1 -1 -1 -1 1 -1 -1 -0 -0 0 0 -1 -1 -2 -2 -1 -3
5 3 1 10 9 7 11 8 10 1 -4 -8 -8 -3 1 -2 -1 8 6 -0 1 -1 0 -1 -1 -0 -1 -3 -1 0 -0 -1 -2 -0 0 -0 0 -1 -2 -1 -2 -1 -0
4 9 4 4 8 7 6 5 -6 -8 -3 -1 -0 -2 -3 -3 -5 -2 4 4 -0 -1 -3 -2 -1 1 0 -2 -3 -2 1 1 1 -1 -1 -1 1 -0 -2 -1 -1 0 -0
11 11 12 8 3 8 6 0 1 -5 -2 -2 -3 -5 -5 -3 -0 -9 -4 4 4 4 1 1 0 -0 -0 -1 -2 -2 -1 0 0 -1 -1 -1 1 0 -1 -1 -1 1 1
2 -0 3 5 9 0 -3 -3 -3 0 2 -2 -2 -2 1 -1 -0 0 -1 -4 -3 -3 0 0 -0 -0 0 0 0 -1 -1 -1 -0 1 0 -1 0 1 -0 -1 -0 -1 -0
3 2 8 -1 -2 1 3 -2 0 4 -2 5 2 -3 -2 0 -0 -2 -0 1 -1 -0 -1 -2 -1 -1 -0 -1 -0 -1 -1 -1 0 0 -0 0 0 0 0 0 -0 1 1
3 1 1 0 -0 -2 1 -1 -4 -0 1 6 2 2 3 -0 0 1 1 2 0 -1 -0 1 -0 -0 0 -0 -1 -0 -0 -1 -2 -1 -0 -0 -0 0 0 1 0 0 1
-0 -1 -2 -1 -3 -7 -7 -4 -4 -5 -5 2 3 1 -2 3 4 -0 -2 2 1 0 1 3 0 -1 0 1 -1 -1 0 0 -1 -2 -3 -1 0 0 1 0 1 0 1
-1 2 -0 -5 1 7 3 3 3 3 2 -6 -2 3 5 -2 5 0 -2 1 1 0 -1 -1 -2 -0 0 0 0 0 0 -0 1 2 -0 -2 -1 0 0 0 0 1 0
0 -0 2 -3 1 4 2 -3 -0 3 5 4 0 -1 -1 -2 -3 7 4 1 1 1 2 1 1 1 -1 -1 -2 -2 -1 -1 -0 0 0 1 -2 -3 -0 0 1 1 1
-3 -3 -1 -0 -3 -7 2 1 -0 -2 -1 -1 2 2 -0 -2 2 -0 -1 1 2 4 -0 0 2 1 1 1 0 0 1 0 -2 0 1 1 0 -0 -3 -1 0 1 1
-3 -1 1 6 5 1 1 6 2 1 2 2 1 -1 1 1 2 1 2 2 1 1 0 0 -1 -0 -0 -1 -0 0 0 -1 1 -2 -0 0 1 0 0 -2 -2 -1 0
-2 -2 -1 1 2 4 1 3 6 -5 1 2 2 1 1 1 1 1 1 1 1 0 3 2 1 0 -0 -1 -1 -0 -1 -1 -0 2 -3 1 0 1 0 -1 -0 -1 -1
3 3 4 2 2 3 2 3 5 5 4 2 1 1 2 2 1 1 1 1 1 0 3 1 -0 1 0 -1 -2 0 0 -1 1 0 0 -2 0 1 1 0 0 -0 -2
1 0 -0 1 1 1 2 1 2 2 1 2 -1 2 2 1 1 1 0 -1 2 3 1 2 3 0 2 3 2 -2 1 0 -0 -1 1 0 -1 0 0 0 -0 0 -0
Height
5724 5717 5710 5703 5696 5689 5681 5674 5667 5660 5653 5646 5637 5629 5620 5611 5601 5592 5582 5569 5557 5542 5524 5506 5491 5480 5470 5463 5459 5454 5450 5447 5443 5442 5440 5434 5429 5424 5422 5419 5417 5415 5413
5713 5706 5698 5691 5684 5676 5669 5662 5655 5648 5640 5632 5624 5615 5606 5597 5587 5576 5564 5553 5539 5523 5506 5491 5478 5468 5461 5455 5449 5445 5441 5437 5432 5428 5427 5423 5416 5411 5408 5406 5403 5401 5400
5700 5692 5686 5679 5672 5663 5657 5650 5642 5634 5625 5617 5609 5601 5592 5582 5572 5560 5548 5536 5521 5506 5488 5476 5465 5457 5452 5446 5440 5435 5431 5427 5422 5417 5414 5410 5404 5399 5396 5393 5390 5390 5389
5687 5679 5673 5666 5659 5651 5644 5636 5629 5620 5612 5604 5595 5586 5576 5564 5555 5542 5529 5515 5501 5486 5473 5462 5453 5447 5442 5437 5431 5427 5422 5417 5412 5407 5402 5397 5392 5387 5383 5381 5380 5378 5377
5674 5667 5660 5653 5647 5639 5631 5624 5615 5606 5599 5590 5580 5569 5560 5546 5535 5526 5514 5499 5485 5472 5460 5452 5444 5438 5433 5428 5422 5418 5411 5406 5401 5395 5390 5385 5381 5376 5372 5370 5368 5365 5362
5662 5655 5648 5642 5635 5627 5619 5610 5601 5593 5585 5575 5564 5553 5542 5533 5517 5506 5495 5483 5470 5460 5451 5443 5436 5429 5425 5420 5416 5410 5404 5398 5393 5385 5380 5374 5371 5366 5363 5360 5356 5352 5350
5652 5644 5638 5630 5622 5613 5604 5595 5587 5578 5569 5558 5547 5536 5526 5517 5502 5491 5481 5471 5456 5449 5441 5435 5428 5422 5417 5410 5405 5398 5393 5387 5381 5376 5371 5365 5362 5359 5355 5350 5344 5340 5337
5641 5633 5626 5617 5609 5601 5592 5582 5571 5562 5551 5540 5529 5519 5510 5501 5489 5477 5468 5456 5446 5439 5432 5426 5420 5414 5410 5404 5398 5392 5386 5380 5373 5368 5362 5358 5354 5351 5346 5340 5335 5331 5325
5627 5619 5611 5605 5595 5586 5575 5565 5555 5545 5535 5525 5514 5503 5494 5487 5475 5461 5454 5445 5436 5430 5424 5418 5412 5406 5401 5396 5391 5385 5378 5372 5366 5360 5356 5352 5349 5344 5339 5333 5327 5322 5316
5612 5606 5599 5590 5579 5569 5560 5551 5540 5529 5519 5508 5501 5489 5481 5473 5461 5449 5442 5435 5428 5423 5416 5410 5406 5400 5394 5389 5383 5377 5372 5366 5361 5356 5351 5348 5344 5339 5333 5327 5320 5315 5310
5602 5595 5586 5576 5567 5559 5546 5535 5524 5514 5507 5499 5489 5478 5468 5460 5449 5438 5431 5426 5419 5414 5408 5403 5399 5394 5388 5383 5376 5370 5365 5360 5355 5351 5347 5343 5339 5335 5329 5322 5315 5310 5305
5589 5580 5572 5562 5553 5542 5531 5519 5510 5502 5493 5485 5476 5468 5457 5448 5440 5430 5421 5417 5412 5407 5402 5397 5392 5386 5381 5376 5370 5363 5359 5354 5349 5345 5342 5339 5335 5330 5324 5318 5312 5307 5303
5574 5565 5556 5547 5537 5526 5517 5508 5500 5488 5479 5472 5464 5455 5445 5435 5432 5425 5417 5409 5405 5401 5396 5391 5386 5381 5376 5370 5365 5359 5353 5348 5344 5341 5337 5334 5331 5327 5322 5315 5310 5305 5302
5559 5550 5543 5533 5524 5515 5506 5494 5483 5475 5468 5458 5450 5442 5434 5425 5419 5416 5410 5404 5399 5394 5389 5384 5379 5375 5371 5365 5359 5354 5349 5345 5341 5337 5333 5330 5327 5324 5319 5314 5309 5304 5301
5546 5537 5528 5520 5512 5503 5494 5484 5474 5463 5455 5445 5437 5430 5423 5415 5409 5403 5401 5397 5393 5389 5384 5379 5375 5370 5366 5361 5356 5350 5345 5341 5336 5333 5329 5326 5324 5321 5317 5313 5308 5304 5301
5530 5523 5515 5506 5496 5486 5479 5472 5463 5453 5443 5434 5427 5421 5414 5407 5402 5396 5391 5387 5384 5381 5378 5374 5369 5365 5361 5357 5352 5348 5342 5338 5333 5329 5326 5323 5320 5317 5315 5312 5308 5303 5300
5516 5507 5498 5488 5480 5473 5464 5458 5452 5443 5435 5428 5418 5410 5404 5399 5393 5388 5384 5381 5377 5375 5371 5367 5364 5360 5356 5352 5348 5345 5341 5336 5331 5326 5322 5319 5316 5313 5312 5310 5307 5304 5300
5498 5489 5481 5473 5466 5459 5452 5444 5437 5432 5425 5418 5410 5403 5396 5389 5385 5380 5377 5374 5371 5368 5365 5362 5358 5354 5351 5347 5344 5341 5337 5333 5329 5325 5320 5316 5312 5310 5308 5307 5305 5303 5301
5482 5476 5468 5461 5453 5444 5437 5429 5422 5414 5408 5404 5397 5391 5385 5380 5376 5371 5367 5366 5363 5360 5358 5355 5351 5348 5345 5342 5338 5335 5332 5330 5326 5323 5318 5314 5310 5306 5304 5303 5302 5302 5300
5467 5461 5454 5447 5441 5432 5423 5416 5409 5401 5393 5387 5382 5379 5374 5369 5366 5362 5358 5356 5354 5352 5349 5347 5344 5341 5338 5335 5333 5330 5327 5325 5322 5320 5317 5313 5309 5304 5301 5299 5299 5298 5298
5452 5446 5438 5431 5425 5417 5408 5399 5393 5387 5381 5375 5369 5364 5360 5356 5354 5352 5349 5347 5345 5344 5341 5339 5336 5333 5330 5328 5326 5324 5322 5319 5317 5315 5313 5310 5307 5303 5299 5296 5295 5294 5294
5435 5428 5421 5413 5404 5397 5390 5382 5375 5368 5364 5360 5356 5352 5347 5344 5342 5339 5336 5335 5335 5334 5332 5330 5328 5326 5323 5320 5318 5317 5315 5313 5311 5309 5308 5306 5305 5302 5298 5295 5292 5290 5290
5418 5411 5403 5395 5385 5376 5370 5363 5357 5351 5347 5344 5341 5338 5335 5332 5330 5327 5325 5324 5324 5323 5322 5320 5319 5317 5315 5312 5310 5309 5308 5306 5305 5304 5302 5301 5300 5299 5296 5293 5290 5287 5286
5400 5391 5382 5374 5365 5356 5349 5344 5339 5332 5329 5327 5325 5323 5321 5319 5317 5315 5313 5313 5312 5312 5312 5311 5310 5308 5306 5304 5302 5301 5299 5297 5297 5297 5296 5296 5295 5294 5293 5291 5289 5286 5283
5380 5370 5360 5350 5342 5335 5329 5324 5320 5317 5313 5310 5309 5308 5306 5305 5304 5303 5302 5301 5300 5300 5301 5301 5300 5299 5298 5296 5294 5293 5291 5289 5289 5288 5288 5288 5288 5288 5288 5287 5286 5284 5282
5356 5346 5336 5328 5321 5316 5310 5306 5302 5300 5297 5295 5293 5294 5292 5292 5291 5290 5289 5289 5289 5289 5289 5290 5289 5289 5288 5287 5285 5284 5283 5281 5279 5278 5279 5280 5280 5281 5281 5281 5281 5280 5279